| time (UTC) | temp C | wind direction | speed KPH | gust KPH | rain 1hr cm | rain 24hr cm | rain mn cm | humidity % | barometer mb |
| 20260505213908 | 10 | 343 | 14.5 | 24.1 | 0.25 | 0.41 | 0.41 | 93 | 1009.7 |
| 20260505213407 | 10 | 345 | 16.1 | 25.7 | 0.25 | 0.38 | 0.38 | 92 | 1009.5 |
| 20260505211907 | 11 | 348 | 11.3 | 24.1 | 0.23 | 0.30 | 0.30 | 91 | 1009.4 |
| 20260505211407 | 11 | 349 | 16.1 | 29.0 | 0.20 | 0.25 | 0.25 | 91 | 1009.4 |
| 20260505210408 | 11 | 352 | 25.7 | 38.6 | 0.15 | 0.20 | 0.20 | 91 | 1009.3 |
| 20260505205908 | 11 | 301 | 12.9 | 27.4 | 0.13 | 0.18 | 0.18 | 93 | 1009.2 |
| 20260505205408 | 11 | 287 | 4.8 | 19.3 | 0.13 | 0.18 | 0.18 | 92 | 1008.7 |
| 20260505204408 | 12 | 283 | 11.3 | 20.9 | 0.10 | 0.15 | 0.15 | 91 | 1008.3 |
| 20260505203907 | 12 | 264 | 11.3 | 24.1 | 0.08 | 0.15 | 0.15 | 91 | 1008.4 |
| 20260505202907 | 12 | 273 | 16.1 | 25.7 | 0.03 | 0.08 | 0.08 | 88 | 1008.3 |
| 20260505202407 | 13 | 268 | 14.5 | 27.4 | 0.00 | 0.05 | 0.05 | 87 | 1008.3 |
| 20260505201908 | 13 | 285 | 16.1 | 20.9 | 0.00 | 0.05 | 0.05 | 87 | 1008.2 |
| 20260505201407 | 13 | 284 | 11.3 | 19.3 | 0.00 | 0.05 | 0.05 | 86 | 1008.1 |
| 20260505200907 | 13 | 285 | 12.9 | 24.1 | 0.00 | 0.05 | 0.05 | 85 | 1007.8 |
| 20260505200407 | 13 | 273 | 14.5 | 25.7 | 0.00 | 0.05 | 0.05 | 84 | 1007.8 |
| 20260505195907 | 14 | 283 | 12.9 | 25.7 | 0.00 | 0.05 | 0.05 | 83 | 1007.7 |
| 20260505195408 | 14 | 264 | 8.0 | 24.1 | 0.00 | 0.05 | 0.05 | 82 | 1007.5 |
| 20260505194907 | 14 | 277 | 14.5 | 24.1 | 0.00 | 0.05 | 0.05 | 81 | 1007.5 |
| 20260505194408 | 15 | 279 | 11.3 | 27.4 | 0.00 | 0.05 | 0.05 | 80 | 1007.5 |
| 20260505193908 | 15 | 243 | 9.7 | 29.0 | 0.00 | 0.05 | 0.05 | 81 | 1007.4 |
| 20260505193408 | 15 | 260 | 16.1 | 29.0 | 0.00 | 0.05 | 0.05 | 80 | 1007.6 |
| 20260505192908 | 15 | 266 | 19.3 | 29.0 | 0.00 | 0.05 | 0.05 | 81 | 1007.6 |
| 20260505192407 | 15 | 266 | 17.7 | 33.8 | 0.00 | 0.05 | 0.05 | 81 | 1007.6 |
| 20260505191907 | 15 | 259 | 19.3 | 29.0 | 0.00 | 0.05 | 0.05 | 80 | 1007.6 |
| 20260505191407 | 15 | 272 | 16.1 | 29.0 | 0.00 | 0.05 | 0.05 | 80 | 1007.5 |
| 20260505190908 | 15 | 279 | 14.5 | 29.0 | 0.00 | 0.05 | 0.05 | 80 | 1007.2 |
| 20260505190408 | 16 | 289 | 14.5 | 29.0 | 0.00 | 0.05 | 0.05 | 81 | 1007.2 |
| 20260505185908 | 15 | 291 | 22.5 | 33.8 | 0.00 | 0.05 | 0.05 | 81 | 1007.2 |
| 20260505185408 | 15 | 288 | 20.9 | 37.0 | 0.00 | 0.05 | 0.05 | 82 | 1007.2 |
| 20260505184908 | 15 | 279 | 19.3 | 35.4 | 0.00 | 0.05 | 0.05 | 81 | 1007.3 |
| 20260505184408 | 15 | 281 | 14.5 | 29.0 | 0.00 | 0.05 | 0.05 | 81 | 1007.2 |
| 20260505183908 | 15 | 267 | 14.5 | 37.0 | 0.00 | 0.05 | 0.05 | 81 | 1007.3 |
| 20260505183407 | 15 | 255 | 19.3 | 37.0 | 0.00 | 0.05 | 0.05 | 80 | 1007.5 |
| 20260505182908 | 16 | 259 | 16.1 | 35.4 | 0.00 | 0.05 | 0.05 | 80 | 1007.7 |
| 20260505182407 | 16 | 264 | 22.5 | 37.0 | 0.00 | 0.05 | 0.05 | 79 | 1007.8 |
| 20260505181407 | 17 | 260 | 22.5 | 35.4 | 0.00 | 0.05 | 0.05 | 79 | 1007.5 |
| 20260505180408 | 17 | 275 | 25.7 | 41.8 | 0.00 | 0.05 | 0.05 | 79 | 1007.2 |
| 20260505175908 | 17 | 257 | 20.9 | 35.4 | 0.00 | 0.05 | 0.05 | 80 | 1007.0 |
| 20260505175407 | 17 | 263 | 25.7 | 41.8 | 0.00 | 0.05 | 0.05 | 79 | 1007.0 |
| 20260505174907 | 17 | 263 | 25.7 | 38.6 | 0.00 | 0.05 | 0.05 | 79 | 1006.9 |
| 20260505174407 | 17 | 262 | 20.9 | 46.7 | 0.00 | 0.05 | 0.05 | 78 | 1006.9 |
| 20260505173408 | 17 | 253 | 25.7 | 56.3 | 0.00 | 0.05 | 0.05 | 78 | 1006.7 |
| 20260505172907 | 17 | 276 | 29.0 | 51.5 | 0.00 | 0.05 | 0.05 | 77 | 1006.7 |
| 20260505171907 | 17 | 268 | 29.0 | 53.1 | 0.00 | 0.05 | 0.05 | 78 | 1006.6 |
| 20260505171407 | 17 | 276 | 27.4 | 53.1 | 0.00 | 0.05 | 0.05 | 79 | 1006.7 |
| 20260505170908 | 17 | 275 | 32.2 | 51.5 | 0.00 | 0.05 | 0.05 | 78 | 1006.6 |
| 20260505170407 | 17 | 260 | 25.7 | 53.1 | 0.00 | 0.05 | 0.05 | 79 | 1006.7 |
| 20260505165908 | 16 | 270 | 29.0 | 62.8 | 0.00 | 0.05 | 0.05 | 80 | 1006.7 |
| 20260505164908 | 16 | 257 | 33.8 | 53.1 | 0.00 | 0.05 | 0.05 | 79 | 1006.8 |
| 20260505164408 | 16 | 249 | 30.6 | 57.9 | 0.00 | 0.05 | 0.05 | 79 | 1007.0 |
| 20260505163907 | 16 | 257 | 37.0 | 75.6 | 0.00 | 0.05 | 0.05 | 79 | 1007.0 |
| 20260505163407 | 16 | 277 | 35.4 | 72.4 | 0.00 | 0.05 | 0.05 | 79 | 1006.9 |
| 20260505162908 | 16 | 264 | 30.6 | 56.3 | 0.00 | 0.05 | 0.05 | 78 | 1007.0 |
| 20260505162407 | 16 | 253 | 30.6 | 56.3 | 0.00 | 0.05 | 0.05 | 78 | 1007.0 |
| 20260505161908 | 16 | 261 | 29.0 | 64.4 | 0.00 | 0.05 | 0.05 | 79 | 1006.7 |
| 20260505161408 | 16 | 256 | 27.4 | 61.2 | 0.00 | 0.05 | 0.05 | 78 | 1006.5 |
| 20260505160907 | 16 | 254 | 30.6 | 61.2 | 0.00 | 0.05 | 0.05 | 78 | 1006.5 |
| 20260505160407 | 16 | 252 | 27.4 | 48.3 | 0.00 | 0.05 | 0.05 | 80 | 1006.4 |
| 20260505152908 | 16 | 262 | 29.0 | 48.3 | 0.00 | 0.05 | 0.05 | 79 | 1006.5 |
| 20260505151907 | 16 | 261 | 25.7 | 57.9 | 0.00 | 0.05 | 0.05 | 80 | 1006.4 |
| 20260505151408 | 16 | 269 | 30.6 | 57.9 | 0.00 | 0.05 | 0.05 | 81 | 1006.5 |
| 20260505150407 | 15 | 263 | 29.0 | 48.3 | 0.00 | 0.05 | 0.05 | 80 | 1006.2 |
| 20260505124907 | 12 | 249 | 22.5 | 45.1 | 0.00 | 0.05 | 0.05 | 85 | 1004.3 |
| 20260505123907 | 13 | 254 | 25.7 | 41.8 | 0.00 | 0.05 | 0.05 | 86 | 1004.1 |
| 20260505122908 | 13 | 253 | 24.1 | 41.8 | 0.00 | 0.05 | 0.05 | 86 | 1004.2 |
| 20260505122407 | 13 | 248 | 20.9 | 56.3 | 0.00 | 0.05 | 0.05 | 86 | 1004.2 |
| 20260505121908 | 13 | 255 | 19.3 | 41.8 | 0.00 | 0.05 | 0.05 | 85 | 1004.2 |
| 20260505121408 | 13 | 250 | 17.7 | 46.7 | 0.00 | 0.05 | 0.05 | 85 | 1004.2 |
| 20260505120908 | 13 | 248 | 27.4 | 48.3 | 0.00 | 0.05 | 0.05 | 84 | 1004.3 |
| 20260505120407 | 13 | 264 | 22.5 | 48.3 | 0.00 | 0.05 | 0.05 | 84 | 1004.1 |
| 20260505115907 | 13 | 260 | 22.5 | 56.3 | 0.00 | 0.05 | 0.05 | 85 | 1003.9 |
| 20260505115407 | 13 | 257 | 27.4 | 51.5 | 0.00 | 0.05 | 0.05 | 87 | 1003.9 |
| 20260505114908 | 12 | 262 | 20.9 | 41.8 | 0.00 | 0.05 | 0.05 | 87 | 1003.9 |
| 20260505114407 | 12 | 273 | 16.1 | 27.4 | 0.00 | 0.05 | 0.05 | 87 | 1003.8 |
| 20260505113907 | 12 | 271 | 19.3 | 33.8 | 0.00 | 0.05 | 0.05 | 87 | 1003.8 |
| 20260505113407 | 12 | 275 | 14.5 | 37.0 | 0.00 | 0.05 | 0.05 | 87 | 1003.6 |
| 20260505112907 | 12 | 279 | 16.1 | 35.4 | 0.00 | 0.05 | 0.05 | 86 | 1003.4 |
| 20260505111907 | 12 | 273 | 16.1 | 33.8 | 0.00 | 0.05 | 0.05 | 86 | 1003.3 |
| 20260505111407 | 12 | 257 | 14.5 | 35.4 | 0.00 | 0.05 | 0.05 | 86 | 1003.3 |
| 20260505110907 | 12 | 273 | 19.3 | 38.6 | 0.00 | 0.05 | 0.05 | 87 | 1003.2 |
| 20260505110408 | 12 | 259 | 19.3 | 35.4 | 0.00 | 0.05 | 0.05 | 87 | 1003.2 |
| 20260505101907 | 10 | 261 | 12.9 | 24.1 | 0.00 | 0.05 | 0.05 | 89 | 1002.8 |
| 20260505101407 | 10 | 275 | 14.5 | 27.4 | 0.00 | 0.05 | 0.05 | 89 | 1002.6 |
| 20260505100907 | 10 | 250 | 9.7 | 24.1 | 0.00 | 0.05 | 0.05 | 88 | 1002.5 |
| 20260505100407 | 10 | 233 | 14.5 | 35.4 | 0.00 | 0.05 | 0.05 | 88 | 1002.3 |
| 20260505095907 | 10 | 224 | 14.5 | 29.0 | 0.00 | 0.05 | 0.05 | 88 | 1002.3 |
| 20260505095407 | 10 | 228 | 12.9 | 27.4 | 0.00 | 0.05 | 0.05 | 88 | 1002.3 |
| 20260505094407 | 11 | 217 | 11.3 | 24.1 | 0.00 | 0.05 | 0.05 | 87 | 1002.1 |
| 20260505093907 | 11 | 220 | 16.1 | 27.4 | 0.00 | 0.05 | 0.05 | 87 | 1002.2 |
| 20260505093407 | 11 | 221 | 9.7 | 35.4 | 0.00 | 0.05 | 0.05 | 87 | 1002.2 |
| 20260505092407 | 11 | 251 | 16.1 | 29.0 | 0.00 | 0.05 | 0.05 | 87 | 1002.3 |
| 20260505091907 | 11 | 243 | 11.3 | 25.7 | 0.00 | 0.05 | 0.05 | 88 | 1002.2 |
| 20260505091407 | 11 | 261 | 14.5 | 33.8 | 0.00 | 0.05 | 0.05 | 88 | 1002.1 |
| 20260505090908 | 11 | 274 | 11.3 | 25.7 | 0.00 | 0.05 | 0.05 | 89 | 1002.2 |
| 20260505090407 | 11 | 272 | 19.3 | 37.0 | 0.00 | 0.05 | 0.05 | 89 | 1002.2 |
| 20260505085907 | 11 | 256 | 11.3 | 25.7 | 0.00 | 0.05 | 0.05 | 89 | 1001.9 |
| 20260505085407 | 11 | 264 | 14.5 | 25.7 | 0.00 | 0.05 | 0.05 | 89 | 1002.0 |
| 20260505084907 | 11 | 224 | 14.5 | 29.0 | 0.00 | 0.05 | 0.05 | 90 | 1002.0 |
| 20260505083908 | 11 | 262 | 8.0 | 16.1 | 0.00 | 0.05 | 0.05 | 89 | 1001.9 |
| 20260505083407 | 11 | 268 | 6.4 | 19.3 | 0.00 | 0.05 | 0.05 | 89 | 1001.8 |
| 20260505082907 | 11 | 272 | 9.7 | 25.7 | 0.00 | 0.05 | 0.05 | 90 | 1001.9 |
| 20260505082407 | 11 | 206 | 14.5 | 29.0 | 0.00 | 0.05 | 0.05 | 91 | 1001.9 |
| 20260505081907 | 11 | 266 | 12.9 | 25.7 | 0.00 | 0.05 | 0.05 | 92 | 1002.0 |
| 20260505080907 | 10 | 255 | 9.7 | 20.9 | 0.00 | 0.05 | 0.05 | 92 | 1002.2 |
| 20260505080407 | 11 | 245 | 4.8 | 24.1 | 0.00 | 0.05 | 0.05 | 92 | 1002.2 |
| 20260505075907 | 11 | 229 | 9.7 | 19.3 | 0.00 | 0.05 | 0.05 | 92 | 1002.1 |
| 20260505075408 | 11 | 233 | 4.8 | 11.3 | 0.00 | 0.05 | 0.05 | 94 | 1002.1 |
| 20260505074907 | 11 | 245 | 8.0 | 16.1 | 0.00 | 0.05 | 0.05 | 95 | 1002.1 |
| 20260505074407 | 10 | 225 | 9.7 | 19.3 | 0.00 | 0.05 | 0.05 | 95 | 1002.0 |
| 20260505072907 | 10 | 214 | 3.2 | 14.5 | 0.00 | 0.05 | 0.05 | 96 | 1002.3 |
| 20260505072407 | 10 | 232 | 8.0 | 19.3 | 0.00 | 0.05 | 0.05 | 96 | 1002.5 |
| 20260505071907 | 9 | 240 | 3.2 | 8.0 | 0.00 | 0.05 | 0.05 | 95 | 1002.3 |
| 20260505071407 | 9 | 241 | 1.6 | 8.0 | 0.00 | 0.05 | 0.05 | 95 | 1002.6 |
| 20260505070908 | 9 | 241 | 0.0 | 9.7 | 0.00 | 0.05 | 0.05 | 95 | 1002.6 |
| 20260505065907 | 9 | 242 | 0.0 | 8.0 | 0.00 | 0.05 | 0.05 | 94 | 1002.6 |
| 20260505065407 | 9 | 242 | 3.2 | 8.0 | 0.00 | 0.05 | 0.05 | 94 | 1002.7 |
| 20260505064907 | 9 | 242 | 3.2 | 8.0 | 0.00 | 0.05 | 0.05 | 94 | 1002.8 |
| 20260505064408 | 9 | 241 | 0.0 | 9.7 | 0.00 | 0.05 | 0.05 | 93 | 1002.9 |
| 20260505063907 | 9 | 247 | 3.2 | 9.7 | 0.00 | 0.05 | 0.05 | 93 | 1002.9 |
| 20260505063407 | 10 | 252 | 4.8 | 9.7 | 0.00 | 0.05 | 0.05 | 93 | 1003.0 |
| 20260505062907 | 10 | 189 | 4.8 | 14.5 | 0.00 | 0.05 | 0.05 | 93 | 1003.0 |
| 20260505062407 | 10 | 216 | 9.7 | 16.1 | 0.00 | 0.05 | 0.05 | 94 | 1003.1 |
| 20260505061907 | 11 | 211 | 8.0 | 14.5 | 0.03 | 0.05 | 0.05 | 93 | 1003.3 |
| 20260505061406 | 11 | 211 | 8.0 | 14.5 | 0.05 | 0.05 | 0.05 | 94 | 1003.3 |
| 20260505060907 | 11 | 209 | 6.4 | 16.1 | 0.05 | 0.05 | 0.05 | 94 | 1003.3 |
| 20260505060407 | 11 | 234 | 4.8 | 11.3 | 0.05 | 0.05 | 0.05 | 94 | 1003.3 |
| 20260505055907 | 11 | 244 | 4.8 | 9.7 | 0.05 | 0.05 | 0.05 | 94 | 1003.4 |
| 20260505055407 | 11 | 267 | 3.2 | 9.7 | 0.05 | 0.05 | 0.05 | 94 | 1003.6 |
| 20260505054907 | 11 | 267 | 6.4 | 19.3 | 0.05 | 0.05 | 0.05 | 94 | 1003.9 |
| 20260505054407 | 11 | 283 | 9.7 | 16.1 | 0.05 | 0.05 | 0.05 | 94 | 1004.1 |
| 20260505053907 | 11 | 262 | 6.4 | 24.1 | 0.05 | 0.05 | 0.05 | 93 | 1003.8 |
| 20260505053407 | 11 | 235 | 6.4 | 19.3 | 0.05 | 0.05 | 0.05 | 92 | 1003.9 |
| 20260505052907 | 11 | 249 | 9.7 | 25.7 | 0.05 | 0.05 | 0.05 | 91 | 1003.9 |
| 20260505052407 | 12 | 215 | 9.7 | 33.8 | 0.05 | 0.05 | 0.05 | 90 | 1004.0 |
| 20260505051907 | 12 | 210 | 9.7 | 20.9 | 0.05 | 0.05 | 0.05 | 92 | 1003.9 |
| 20260505051407 | 12 | 252 | 8.0 | 20.9 | 0.03 | 0.03 | 0.03 | 92 | 1003.6 |
| 20260505050907 | 12 | 263 | 14.5 | 29.0 | 0.03 | 0.03 | 0.03 | 91 | 1003.8 |
| 20260505041407 | 13 | 257 | 29.0 | 57.9 | 0.00 | 0.00 | 0.00 | 81 | 1004.0 |
| 20260505040907 | 13 | 247 | 20.9 | 46.7 | 0.00 | 0.00 | 0.00 | 80 | 1003.9 |
| 20260505040407 | 14 | 260 | 20.9 | 46.7 | 0.00 | 0.00 | 0.00 | 80 | 1003.9 |
| 20260505035906 | 15 | 259 | 20.9 | 45.1 | 0.00 | 0.00 | 0.00 | 80 | 1003.8 |
| 20260505034907 | 14 | 251 | 20.9 | 45.1 | 0.00 | 0.00 | 0.00 | 81 | 1003.8 |
| 20260505034407 | 14 | 254 | 27.4 | 57.9 | 0.00 | 0.00 | 0.00 | 82 | 1003.7 |
| 20260505033907 | 13 | 226 | 20.9 | 53.1 | 0.00 | 0.00 | 0.00 | 83 | 1003.5 |
| 20260505033407 | 13 | 245 | 20.9 | 45.1 | 0.00 | 0.00 | 0.00 | 82 | 1003.7 |
| 20260505032908 | 13 | 230 | 19.3 | 37.0 | 0.00 | 0.00 | 0.00 | 82 | 1003.8 |
| 20260505032407 | 13 | 242 | 16.1 | 29.0 | 0.00 | 0.00 | 0.00 | 82 | 1003.9 |
| 20260505031907 | 13 | 228 | 20.9 | 38.6 | 0.00 | 0.00 | 0.00 | 87 | 1003.8 |
| 20260505031407 | 12 | 217 | 19.3 | 33.8 | 0.00 | 0.00 | 0.00 | 86 | 1003.9 |
| 20260505030907 | 12 | 264 | 12.9 | 35.4 | 0.00 | 0.00 | 0.00 | 87 | 1003.6 |
| 20260505030406 | 11 | 224 | 16.1 | 29.0 | 0.00 | 0.00 | 0.00 | 87 | 1003.7 |
| 20260505025407 | 11 | 203 | 4.8 | 20.9 | 0.00 | 0.00 | 0.00 | 89 | 1003.4 |
| 20260505024907 | 11 | 241 | 3.2 | 9.7 | 0.00 | 0.00 | 0.00 | 88 | 1003.5 |
| 20260505024407 | 11 | 249 | 3.2 | 8.0 | 0.00 | 0.00 | 0.00 | 88 | 1003.6 |
| 20260505023407 | 11 | 266 | 4.8 | 9.7 | 0.00 | 0.00 | 0.00 | 87 | 1003.7 |
| 20260505022907 | 11 | 245 | 3.2 | 9.7 | 0.00 | 0.00 | 0.00 | 86 | 1003.7 |
| 20260505022409 | 11 | 253 | 4.8 | 9.7 | 0.00 | 0.00 | 0.00 | 85 | 1003.7 |
| 20260505021407 | 12 | 231 | 8.0 | 16.1 | 0.00 | 0.00 | 0.00 | 83 | 1003.9 |
| 20260505020907 | 12 | 217 | 4.8 | 11.3 | 0.00 | 0.00 | 0.00 | 82 | 1004.0 |
| 20260505015907 | 13 | 215 | 9.7 | 27.4 | 0.00 | 0.00 | 0.00 | 80 | 1004.3 |
| 20260505015407 | 13 | 217 | 9.7 | 20.9 | 0.00 | 0.00 | 0.00 | 80 | 1004.3 |
| 20260505014907 | 13 | 221 | 14.5 | 25.7 | 0.00 | 0.00 | 0.00 | 80 | 1004.2 |
| 20260505014407 | 13 | 223 | 11.3 | 29.0 | 0.00 | 0.00 | 0.00 | 81 | 1004.2 |
| 20260505013407 | 13 | 235 | 11.3 | 25.7 | 0.00 | 0.00 | 0.00 | 83 | 1004.1 |
| 20260505012907 | 13 | 261 | 8.0 | 19.3 | 0.00 | 0.00 | 0.00 | 80 | 1004.1 |
| 20260505012407 | 13 | 287 | 9.7 | 38.6 | 0.00 | 0.00 | 0.00 | 78 | 1004.3 |
| 20260505011906 | 13 | 210 | 20.9 | 45.1 | 0.00 | 0.00 | 0.00 | 76 | 1004.4 |
| 20260505011407 | 13 | 257 | 16.1 | 33.8 | 0.00 | 0.00 | 0.00 | 74 | 1004.7 |
| 20260505010907 | 12 | 233 | 4.8 | 11.3 | 0.00 | 0.00 | 0.00 | 74 | 1004.0 |
| 20260505010407 | 12 | 231 | 4.8 | 11.3 | 0.00 | 0.00 | 0.00 | 74 | 1003.8 |
| 20260505005907 | 12 | 233 | 3.2 | 8.0 | 0.00 | 0.00 | 0.00 | 75 | 1003.9 |
| 20260505005407 | 12 | 233 | 3.2 | 11.3 | 0.00 | 0.00 | 0.00 | 75 | 1003.8 |
| 20260505004906 | 12 | 239 | 3.2 | 9.7 | 0.00 | 0.00 | 0.00 | 75 | 1003.9 |
| 20260505004407 | 12 | 203 | 4.8 | 9.7 | 0.00 | 0.00 | 0.00 | 75 | 1003.9 |
| 20260505003907 | 12 | 199 | 1.6 | 9.7 | 0.00 | 0.00 | 0.00 | 76 | 1003.8 |
| 20260505003407 | 12 | 199 | 1.6 | 8.0 | 0.00 | 0.00 | 0.00 | 76 | 1003.8 |
| 20260505002907 | 12 | 198 | 1.6 | 4.8 | 0.00 | 0.00 | 0.00 | 75 | 1003.7 |
| 20260505002407 | 12 | 198 | 1.6 | 8.0 | 0.00 | 0.00 | 0.00 | 75 | 1003.7 |
| 20260505001907 | 12 | 198 | 1.6 | 4.8 | 0.00 | 0.00 | 0.00 | 74 | 1003.6 |
| 20260505001407 | 13 | 198 | 3.2 | 8.0 | 0.00 | 0.00 | 0.00 | 73 | 1003.7 |
| 20260505000907 | 13 | 197 | 1.6 | 8.0 | 0.00 | 0.00 | 0.00 | 72 | 1003.8 |
| 20260505000407 | 13 | 197 | 3.2 | 14.5 | 0.00 | 0.00 | 0.00 | 70 | 1003.9 |
| 20260504235907 | 14 | 204 | 4.8 | 9.7 | 0.00 | 0.00 | 0.00 | 69 | 1003.9 |
| 20260504235407 | 15 | 205 | 8.0 | 9.7 | 0.00 | 0.00 | 0.00 | 67 | 1003.9 |
| 20260504234907 | 15 | 208 | 1.6 | 9.7 | 0.00 | 0.00 | 0.00 | 66 | 1003.9 |
| 20260504234406 | 15 | 210 | 8.0 | 14.5 | 0.00 | 0.00 | 0.00 | 65 | 1004.0 |
| 20260504233907 | 15 | 252 | 4.8 | 11.3 | 0.00 | 0.00 | 0.00 | 65 | 1004.1 |
| 20260504233406 | 16 | 264 | 4.8 | 16.1 | 0.00 | 0.00 | 0.00 | 65 | 1004.3 |
| 20260504232407 | 16 | 266 | 8.0 | 20.9 | 0.00 | 0.00 | 0.00 | 64 | 1004.4 |
| 20260504231907 | 16 | 256 | 8.0 | 20.9 | 0.00 | 0.00 | 0.00 | 64 | 1004.4 |
| 20260504231407 | 16 | 253 | 9.7 | 27.4 | 0.00 | 0.00 | 0.00 | 62 | 1004.4 |
| 20260504230907 | 16 | 251 | 11.3 | 25.7 | 0.00 | 0.00 | 0.00 | 63 | 1004.5 |
| 20260504230406 | 16 | 263 | 9.7 | 20.9 | 0.00 | 0.00 | 0.00 | 62 | 1004.6 |
| 20260504225907 | 17 | 252 | 4.8 | 25.7 | 0.00 | 0.00 | 0.00 | 61 | 1004.7 |
| 20260504225406 | 17 | 284 | 11.3 | 25.7 | 0.00 | 0.00 | 0.00 | 60 | 1004.7 |
| 20260504223906 | 18 | 267 | 11.3 | 25.7 | 0.00 | 0.00 | 0.00 | 55 | 1004.6 |
| 20260504223407 | 18 | 233 | 11.3 | 27.4 | 0.00 | 0.00 | 0.00 | 55 | 1004.6 |
| 20260504222907 | 18 | 242 | 11.3 | 25.7 | 0.00 | 0.00 | 0.00 | 55 | 1004.6 |
| 20260504222407 | 19 | 262 | 12.9 | 29.0 | 0.00 | 0.00 | 0.00 | 55 | 1004.6 |
| 20260504221906 | 19 | 247 | 8.0 | 29.0 | 0.00 | 0.00 | 0.00 | 54 | 1004.5 |
| 20260504221407 | 19 | 259 | 14.5 | 29.0 | 0.00 | 0.00 | 0.00 | 54 | 1004.6 |
| 20260504220906 | 19 | 248 | 16.1 | 29.0 | 0.00 | 0.00 | 0.00 | 54 | 1004.6 |
| 20260504220406 | 19 | 258 | 16.1 | 38.6 | 0.00 | 0.00 | 0.00 | 55 | 1004.4 |
| 20260504215907 | 18 | 237 | 14.5 | 38.6 | 0.00 | 0.00 | 0.00 | 57 | 1004.4 |
| 20260504215406 | 18 | 243 | 19.3 | 27.4 | 0.00 | 0.00 | 0.00 | 58 | 1004.4 |
| 20260504214907 | 18 | 230 | 16.1 | 35.4 | 0.00 | 0.00 | 0.00 | 61 | 1004.4 |
| 20260504214407 | 17 | 248 | 11.3 | 33.8 | 0.00 | 0.00 | 0.00 | 61 | 1004.3 |